Time,TemperatureF,DewpointF,PressureIn,WindDirection,WindDirectionDegrees,WindSpeedMPH,WindSpeedGustMPH,Humidity,HourlyPrecipIn,Conditions,Clouds,dailyrainin,SoftwareType,DateUTC
2013-02-04 00:03:00,31.0,29.0,29.94,NW,315,1.0,5.0,93,0.00,,,0.00,,2013-02-04 05:03:00,
2013-02-04 00:12:00,31.0,29.0,29.94,NW,315,1.0,5.0,93,0.00,,,0.00,,2013-02-04 05:12:00,
2013-02-04 00:22:00,31.0,29.0,29.94,West,281,2.0,7.0,93,0.00,,,0.00,,2013-02-04 05:22:00,
2013-02-04 00:33:00,31.0,29.0,29.94,West,273,1.0,4.0,93,0.00,,,0.00,,2013-02-04 05:33:00,
2013-02-04 00:42:00,31.0,29.0,29.94,West,273,1.0,4.0,93,0.00,,,0.00,,2013-02-04 05:42:00,
2013-02-04 00:52:00,31.0,29.0,29.94,WNW,295,3.0,6.0,92,0.00,,,0.00,,2013-02-04 05:52:00,
2013-02-04 01:02:00,31.0,29.0,29.95,WNW,286,2.0,7.0,91,0.00,,,0.00,,2013-02-04 06:02:00,
2013-02-04 01:11:00,31.0,29.0,29.95,WNW,286,2.0,7.0,91,0.00,,,0.00,,2013-02-04 06:11:00,
2013-02-04 01:21:00,32.0,29.0,29.95,NW,312,3.0,9.0,89,0.00,,,0.00,,2013-02-04 06:21:00,
2013-02-04 01:32:00,32.0,29.0,29.96,NW,304,2.0,9.0,87,0.00,,,0.00,,2013-02-04 06:32:00,
2013-02-04 01:42:00,32.0,29.0,29.96,NW,304,2.0,9.0,87,0.00,,,0.00,,2013-02-04 06:42:00,
2013-02-04 01:52:00,32.0,28.0,29.96,NW,309,5.0,11.0,85,0.00,,,0.00,,2013-02-04 06:52:00,
2013-02-04 02:02:00,32.0,27.0,29.96,WNW,301,4.0,11.0,82,0.00,,,0.00,,2013-02-04 07:02:00,
2013-02-04 02:11:00,32.0,27.0,29.96,WNW,301,4.0,11.0,82,0.00,,,0.00,,2013-02-04 07:11:00,
2013-02-04 02:21:00,32.0,26.0,29.97,WNW,301,6.0,15.0,78,0.00,,,0.00,,2013-02-04 07:21:00,
2013-02-04 02:32:00,32.0,25.0,29.98,NW,305,6.0,15.0,75,0.00,,,0.00,,2013-02-04 07:32:00,
2013-02-04 02:42:00,32.0,25.0,29.98,NW,305,6.0,15.0,75,0.00,,,0.00,,2013-02-04 07:42:00,
2013-02-04 02:52:00,32.0,23.0,29.98,NW,310,5.0,17.0,69,0.00,,,0.00,,2013-02-04 07:52:00,
2013-02-04 03:01:00,32.0,22.0,29.98,NW,312,8.0,16.0,66,0.00,,,0.00,,2013-02-04 08:01:00,
2013-02-04 03:11:00,32.0,22.0,29.98,NW,312,8.0,16.0,66,0.00,,,0.00,,2013-02-04 08:11:00,
2013-02-04 03:21:00,31.0,21.0,29.99,NW,310,4.0,11.0,66,0.00,,,0.00,,2013-02-04 08:21:00,
2013-02-04 03:32:00,31.0,21.0,30.00,NW,309,7.0,13.0,66,0.00,,,0.00,,2013-02-04 08:32:00,
2013-02-04 03:42:00,31.0,21.0,30.00,NW,309,7.0,13.0,66,0.00,,,0.00,,2013-02-04 08:42:00,
2013-02-04 03:52:00,31.0,21.0,30.00,WNW,296,4.0,12.0,65,0.00,,,0.00,,2013-02-04 08:52:00,
2013-02-04 04:02:00,31.0,21.0,30.01,NNW,327,3.0,10.0,66,0.00,,,0.00,,2013-02-04 09:02:00,
2013-02-04 04:11:00,31.0,21.0,30.01,NNW,327,3.0,10.0,66,0.00,,,0.00,,2013-02-04 09:11:00,
2013-02-04 04:21:00,31.0,21.0,30.02,WNW,301,5.0,11.0,65,0.00,,,0.00,,2013-02-04 09:21:00,
2013-02-04 04:32:00,31.0,21.0,30.02,WNW,301,5.0,12.0,65,0.00,,,0.00,,2013-02-04 09:32:00,
2013-02-04 04:42:00,31.0,21.0,30.02,WNW,301,5.0,12.0,65,0.00,,,0.00,,2013-02-04 09:42:00,
2013-02-04 04:52:00,30.0,19.0,30.02,NW,320,5.0,10.0,64,0.00,,,0.00,,2013-02-04 09:52:00,
2013-02-04 05:01:00,30.0,18.0,30.03,NW,307,6.0,15.0,61,0.00,,,0.00,,2013-02-04 10:01:00,
2013-02-04 05:11:00,30.0,18.0,30.03,NW,307,6.0,15.0,61,0.00,,,0.00,,2013-02-04 10:11:00,
2013-02-04 05:21:00,29.0,18.0,30.04,WNW,297,2.0,12.0,62,0.00,,,0.00,,2013-02-04 10:21:00,
2013-02-04 05:32:00,29.0,16.0,30.05,WNW,296,6.0,16.0,58,0.00,,,0.00,,2013-02-04 10:32:00,
2013-02-04 05:42:00,29.0,16.0,30.05,WNW,296,6.0,16.0,58,0.00,,,0.00,,2013-02-04 10:42:00,
2013-02-04 05:52:00,29.0,16.0,30.04,NW,316,9.0,16.0,59,0.00,,,0.00,,2013-02-04 10:52:00,
2013-02-04 06:02:00,29.0,16.0,30.05,NW,310,7.0,15.0,58,0.00,,,0.00,,2013-02-04 11:02:00,
2013-02-04 06:11:00,29.0,16.0,30.05,NW,310,7.0,15.0,58,0.00,,,0.00,,2013-02-04 11:11:00,
2013-02-04 06:22:00,28.0,16.0,30.06,WNW,290,4.0,13.0,60,0.00,,,0.00,,2013-02-04 11:22:00,
2013-02-04 06:32:00,28.0,16.0,30.07,WNW,294,7.0,12.0,59,0.00,,,0.00,,2013-02-04 11:32:00,
2013-02-04 06:42:00,28.0,16.0,30.07,WNW,294,7.0,12.0,59,0.00,,,0.00,,2013-02-04 11:42:00,
2013-02-04 06:52:00,28.0,15.0,30.09,NNW,330,6.0,10.0,58,0.00,,,0.00,,2013-02-04 11:52:00,
2013-02-04 07:02:00,27.0,14.0,30.10,WNW,301,5.0,12.0,58,0.00,,,0.00,,2013-02-04 12:02:00,
2013-02-04 07:12:00,27.0,14.0,30.10,WNW,301,5.0,12.0,58,0.00,,,0.00,,2013-02-04 12:12:00,
2013-02-04 07:22:00,27.0,14.0,30.11,NW,306,5.0,8.0,57,0.00,,,0.00,,2013-02-04 12:22:00,
2013-02-04 07:32:00,27.0,13.0,30.11,West,264,7.0,16.0,55,0.00,,,0.00,,2013-02-04 12:32:00,
2013-02-04 07:42:00,27.0,13.0,30.11,West,264,7.0,16.0,55,0.00,,,0.00,,2013-02-04 12:42:00,
2013-02-04 07:53:00,27.0,13.0,30.13,WNW,291,3.0,9.0,55,0.00,,,0.00,,2013-02-04 12:53:00,
2013-02-04 08:03:00,28.0,14.0,30.14,WNW,288,3.0,8.0,56,0.00,,,0.00,,2013-02-04 13:03:00,
2013-02-04 08:12:00,28.0,14.0,30.14,WNW,286,3.0,8.0,56,0.00,,,0.00,,2013-02-04 13:12:00,
2013-02-04 08:22:00,28.0,14.0,30.14,WNW,286,3.0,8.0,56,0.00,,,0.00,,2013-02-04 13:22:00,
2013-02-04 08:33:00,28.0,15.0,30.15,West,274,4.0,8.0,57,0.00,,,0.00,,2013-02-04 13:33:00,
2013-02-04 08:42:00,28.0,15.0,30.15,West,274,4.0,8.0,57,0.00,,,0.00,,2013-02-04 13:42:00,
2013-02-04 08:52:00,28.0,15.0,30.15,NW,307,5.0,9.0,57,0.00,,,0.00,,2013-02-04 13:52:00,
2013-02-04 09:03:00,28.0,15.0,30.16,NW,307,5.0,10.0,57,0.00,,,0.00,,2013-02-04 14:03:00,
2013-02-04 09:12:00,28.0,15.0,30.16,NW,307,5.0,10.0,57,0.00,,,0.00,,2013-02-04 14:12:00,
2013-02-04 09:23:00,29.0,15.0,30.15,WNW,285,2.0,10.0,56,0.00,,,0.00,,2013-02-04 14:23:00,
2013-02-04 09:33:00,29.0,14.0,30.15,WNW,301,6.0,11.0,54,0.00,,,0.00,,2013-02-04 14:33:00,
2013-02-04 09:42:00,29.0,14.0,30.15,WNW,301,6.0,11.0,54,0.00,,,0.00,,2013-02-04 14:42:00,
2013-02-04 09:52:00,29.0,14.0,30.16,WSW,258,6.0,12.0,54,0.00,,,0.00,,2013-02-04 14:52:00,
2013-02-04 10:03:00,29.0,14.0,30.15,WNW,283,8.0,13.0,53,0.00,,,0.00,,2013-02-04 15:03:00,
2013-02-04 10:13:00,29.0,14.0,30.15,WNW,283,8.0,13.0,53,0.00,,,0.00,,2013-02-04 15:13:00,
2013-02-04 10:23:00,29.0,13.0,30.15,WNW,291,6.0,14.0,51,0.00,,,0.00,,2013-02-04 15:23:00,
2013-02-04 10:33:00,29.0,13.0,30.14,WNW,291,10.0,16.0,51,0.00,,,0.00,,2013-02-04 15:33:00,
2013-02-04 10:43:00,29.0,13.0,30.14,WNW,291,10.0,16.0,51,0.00,,,0.00,,2013-02-04 15:43:00,
2013-02-04 10:53:00,30.0,15.0,30.14,West,278,4.0,14.0,52,0.00,,,0.00,,2013-02-04 15:53:00,
2013-02-04 11:03:00,30.0,14.0,30.14,WNW,298,8.0,19.0,50,0.00,,,0.00,,2013-02-04 16:03:00,
2013-02-04 11:11:00,30.0,14.0,30.14,WNW,298,8.0,19.0,50,0.00,,,0.00,,2013-02-04 16:11:00,
2013-02-04 11:22:00,30.0,14.0,30.13,NW,309,4.0,14.0,51,0.00,,,0.00,,2013-02-04 16:22:00,
2013-02-04 11:33:00,31.0,15.0,30.14,NNW,333,3.0,15.0,51,0.00,,,0.00,,2013-02-04 16:33:00,
2013-02-04 11:43:00,31.0,15.0,30.14,NNW,333,3.0,15.0,51,0.00,,,0.00,,2013-02-04 16:43:00,
2013-02-04 11:52:00,31.0,15.0,30.13,NW,308,8.0,15.0,50,0.00,,,0.00,,2013-02-04 16:52:00,
2013-02-04 12:02:00,31.0,15.0,30.12,WNW,301,7.0,13.0,50,0.00,,,0.00,,2013-02-04 17:02:00,
2013-02-04 12:11:00,31.0,15.0,30.12,WNW,301,7.0,13.0,50,0.00,,,0.00,,2013-02-04 17:11:00,
2013-02-04 12:21:00,32.0,15.0,30.11,WNW,296,6.0,10.0,50,0.00,,,0.00,,2013-02-04 17:21:00,
2013-02-04 12:32:00,32.0,15.0,30.10,WNW,297,7.0,14.0,50,0.00,,,0.00,,2013-02-04 17:32:00,
2013-02-04 12:42:00,32.0,15.0,30.10,WNW,297,7.0,14.0,50,0.00,,,0.00,,2013-02-04 17:42:00,
2013-02-04 12:52:00,32.0,16.0,30.10,WNW,284,3.0,9.0,51,0.00,,,0.00,,2013-02-04 17:52:00,
2013-02-04 13:03:00,33.0,16.0,30.09,WSW,252,4.0,9.0,50,0.00,,,0.00,,2013-02-04 18:03:00,
2013-02-04 13:11:00,33.0,16.0,30.09,WSW,252,4.0,9.0,50,0.00,,,0.00,,2013-02-04 18:11:00,
2013-02-04 13:22:00,33.0,16.0,30.09,NW,314,3.0,11.0,50,0.00,,,0.00,,2013-02-04 18:22:00,
2013-02-04 13:32:00,34.0,18.0,30.08,West,278,3.0,8.0,51,0.00,,,0.00,,2013-02-04 18:32:00,
2013-02-04 13:42:00,34.0,18.0,30.08,West,278,3.0,8.0,51,0.00,,,0.00,,2013-02-04 18:42:00,
2013-02-04 13:52:00,34.0,17.0,30.07,NW,317,5.0,11.0,50,0.00,,,0.00,,2013-02-04 18:52:00,
2013-02-04 14:02:00,35.0,17.0,30.07,NNW,337,4.0,13.0,48,0.00,,,0.00,,2013-02-04 19:02:00,
2013-02-04 14:11:00,35.0,17.0,30.07,NNW,337,4.0,13.0,48,0.00,,,0.00,,2013-02-04 19:11:00,
2013-02-04 14:22:00,36.0,18.0,30.06,NNW,338,2.0,9.0,48,0.00,,,0.00,,2013-02-04 19:22:00,
2013-02-04 14:32:00,36.0,17.0,30.04,West,266,4.0,14.0,46,0.00,,,0.00,,2013-02-04 19:32:00,
2013-02-04 14:42:00,36.0,17.0,30.04,West,266,4.0,14.0,46,0.00,,,0.00,,2013-02-04 19:42:00,
2013-02-04 14:52:00,36.0,17.0,30.05,West,277,4.0,10.0,46,0.00,,,0.00,,2013-02-04 19:52:00,
2013-02-04 15:02:00,36.0,17.0,30.05,WNW,288,2.0,14.0,46,0.00,,,0.00,,2013-02-04 20:02:00,
2013-02-04 15:12:00,36.0,17.0,30.05,WNW,288,2.0,14.0,46,0.00,,,0.00,,2013-02-04 20:12:00,
2013-02-04 15:22:00,36.0,17.0,30.05,ESE,108,4.0,10.0,45,0.00,,,0.00,,2013-02-04 20:22:00,
2013-02-04 15:32:00,36.0,17.0,30.06,SW,231,4.0,11.0,46,0.00,,,0.00,,2013-02-04 20:32:00,
2013-02-04 15:42:00,36.0,17.0,30.06,SW,231,4.0,11.0,46,0.00,,,0.00,,2013-02-04 20:42:00,
2013-02-04 15:52:00,36.0,17.0,30.06,NW,314,7.0,13.0,46,0.00,,,0.00,,2013-02-04 20:52:00,
2013-02-04 16:03:00,36.0,17.0,30.06,SW,235,4.0,9.0,46,0.00,,,0.00,,2013-02-04 21:03:00,
2013-02-04 16:11:00,36.0,17.0,30.06,SW,235,4.0,9.0,46,0.00,,,0.00,,2013-02-04 21:11:00,
2013-02-04 16:22:00,36.0,18.0,30.06,WNW,285,1.0,10.0,48,0.00,,,0.00,,2013-02-04 21:22:00,
2013-02-04 16:32:00,36.0,19.0,30.05,West,273,1.0,8.0,49,0.00,,,0.00,,2013-02-04 21:32:00,
2013-02-04 16:42:00,36.0,19.0,30.05,West,273,1.0,8.0,49,0.00,,,0.00,,2013-02-04 21:42:00,
2013-02-04 16:52:00,35.0,18.0,30.05,West,281,3.0,8.0,50,0.00,,,0.00,,2013-02-04 21:52:00,
2013-02-04 17:03:00,35.0,19.0,30.05,WNW,303,2.0,4.0,51,0.00,,,0.00,,2013-02-04 22:03:00,
2013-02-04 17:12:00,35.0,19.0,30.05,WNW,303,2.0,4.0,51,0.00,,,0.00,,2013-02-04 22:12:00,
2013-02-04 17:21:00,35.0,19.0,30.04,West,270,0.0,3.0,52,0.00,,,0.00,,2013-02-04 22:21:00,
2013-02-04 17:32:00,34.0,19.0,30.05,West,277,1.0,3.0,53,0.00,,,0.00,,2013-02-04 22:32:00,
2013-02-04 17:42:00,34.0,19.0,30.05,West,277,1.0,3.0,53,0.00,,,0.00,,2013-02-04 22:42:00,
2013-02-04 17:52:00,34.0,20.0,30.04,NNW,329,1.0,8.0,55,0.00,,,0.00,,2013-02-04 22:52:00,
2013-02-04 18:01:00,33.0,19.0,30.05,West,259,0.0,3.0,57,0.00,,,0.00,,2013-02-04 23:01:00,
2013-02-04 18:11:00,33.0,19.0,30.05,West,259,0.0,3.0,57,0.00,,,0.00,,2013-02-04 23:11:00,
2013-02-04 18:22:00,32.0,19.0,30.05,WSW,239,0.0,2.0,58,0.00,,,0.00,,2013-02-04 23:22:00,
2013-02-04 18:32:00,32.0,20.0,30.05,WSW,239,0.0,1.0,60,0.00,,,0.00,,2013-02-04 23:32:00,
2013-02-04 18:42:00,32.0,20.0,30.05,WSW,239,0.0,1.0,60,0.00,,,0.00,,2013-02-04 23:42:00,
2013-02-04 18:52:00,32.0,20.0,30.05,WSW,238,0.0,0.0,61,0.00,,,0.00,,2013-02-04 23:52:00,
2013-02-04 19:02:00,32.0,20.0,30.05,WSW,239,0.0,0.0,62,0.00,,,0.00,,2013-02-05 00:02:00,
2013-02-04 19:11:00,32.0,20.0,30.05,WSW,239,0.0,0.0,62,0.00,,,0.00,,2013-02-05 00:11:00,
2013-02-04 19:22:00,32.0,20.0,30.05,WSW,238,0.0,0.0,61,0.00,,,0.00,,2013-02-05 00:22:00,
2013-02-04 19:32:00,32.0,21.0,30.05,SSE,148,0.0,1.0,63,0.00,,,0.00,,2013-02-05 00:32:00,
2013-02-04 19:42:00,32.0,21.0,30.05,SSE,148,0.0,1.0,63,0.00,,,0.00,,2013-02-05 00:42:00,
2013-02-04 19:52:00,33.0,22.0,30.05,SSE,148,0.0,0.0,64,0.00,,,0.00,,2013-02-05 00:52:00,
2013-02-04 20:02:00,33.0,22.0,30.05,SSE,148,0.0,0.0,64,0.00,,,0.00,,2013-02-05 01:02:00,
2013-02-04 20:12:00,33.0,22.0,30.05,SSE,148,0.0,0.0,64,0.00,,,0.00,,2013-02-05 01:12:00,
2013-02-04 20:22:00,33.0,23.0,30.05,SSE,148,0.0,0.0,65,0.00,,,0.00,,2013-02-05 01:22:00,
2013-02-04 20:32:00,33.0,22.0,30.04,SE,129,1.0,1.0,63,0.00,,,0.00,,2013-02-05 01:32:00,
2013-02-04 20:42:00,33.0,22.0,30.04,SE,129,1.0,1.0,63,0.00,,,0.00,,2013-02-05 01:42:00,
2013-02-04 20:52:00,33.0,22.0,30.04,South,174,0.0,2.0,64,0.00,,,0.00,,2013-02-05 01:52:00,
2013-02-04 21:01:00,33.0,23.0,30.04,SE,142,0.0,2.0,65,0.00,,,0.00,,2013-02-05 02:01:00,
2013-02-04 21:11:00,33.0,23.0,30.04,SE,142,0.0,2.0,65,0.00,,,0.00,,2013-02-05 02:11:00,
2013-02-04 21:22:00,34.0,23.0,30.03,SW,221,1.0,3.0,65,0.00,,,0.00,,2013-02-05 02:22:00,
2013-02-04 21:32:00,34.0,25.0,30.03,SSW,210,0.0,2.0,68,0.00,,,0.00,,2013-02-05 02:32:00,
2013-02-04 21:42:00,34.0,25.0,30.03,SSW,210,0.0,2.0,68,0.00,,,0.00,,2013-02-05 02:42:00,
2013-02-04 21:52:00,35.0,26.0,30.02,SSW,194,1.0,3.0,70,0.00,,,0.00,,2013-02-05 02:52:00,
2013-02-04 22:02:00,35.0,27.0,30.02,SSW,192,3.0,5.0,73,0.00,,,0.00,,2013-02-05 03:02:00,
2013-02-04 22:11:00,35.0,27.0,30.02,SSW,192,3.0,5.0,73,0.00,,,0.00,,2013-02-05 03:11:00,
2013-02-04 22:21:00,36.0,29.0,30.01,South,184,4.0,7.0,76,0.00,,,0.00,,2013-02-05 03:21:00,
2013-02-04 22:32:00,36.0,29.0,30.01,SSW,208,2.0,8.0,77,0.00,,,0.00,,2013-02-05 03:32:00,
2013-02-04 22:42:00,36.0,29.0,30.01,SSW,208,2.0,8.0,77,0.00,,,0.00,,2013-02-05 03:42:00,
2013-02-04 22:52:00,37.0,31.0,30.00,SSW,207,5.0,10.0,79,0.00,,,0.00,,2013-02-05 03:52:00,
2013-02-04 23:01:00,38.0,32.0,30.00,South,176,3.0,14.0,78,0.00,,,0.00,,2013-02-05 04:01:00,
2013-02-04 23:11:00,38.0,32.0,30.00,South,176,3.0,14.0,78,0.00,,,0.00,,2013-02-05 04:11:00,
2013-02-04 23:22:00,39.0,32.0,30.01,West,260,4.0,11.0,76,0.00,,,0.00,,2013-02-05 04:22:00,
2013-02-04 23:32:00,39.0,32.0,30.00,West,281,5.0,13.0,75,0.00,,,0.00,,2013-02-05 04:32:00,
2013-02-04 23:42:00,39.0,32.0,30.00,West,281,5.0,13.0,75,0.00,,,0.00,,2013-02-05 04:42:00,
2013-02-04 23:52:00,39.0,31.0,29.98,SW,217,6.0,11.0,73,0.00,,,0.00,,2013-02-05 04:52:00,